Radiation Dose at Monitoring Post of Fukushima Daini Nuclear Power Station
Date,Time,MP-1(microSv/h),MP-2(microSv/h),MP-3(microSv/h),MP-4(microSv/h),MP-5(microSv/h),MP-6(microSv/h),MP-7(microSv/h),Wind Direction,Wind Velocity(m/s),Rain
2015/04/28,00:00,0.544,0.336,0.583,0.538,0.563,0.256,0.228,west-northwest,2.5,No
2015/04/28,00:10,0.548,0.334,0.580,0.542,0.558,0.255,0.228,west-northwest,3.0,No
2015/04/28,00:20,0.544,0.334,0.582,0.541,0.561,0.255,0.229,west,3.0,No
2015/04/28,00:30,0.549,0.336,0.581,0.541,0.557,0.255,0.228,west,4.4,No
2015/04/28,00:40,0.544,0.334,0.579,0.538,0.563,0.254,0.229,west,3.7,No
2015/04/28,00:50,0.547,0.337,0.580,0.540,0.557,0.255,0.228,west,3.6,No
2015/04/28,01:00,0.546,0.334,0.576,0.539,0.561,0.255,0.228,west,2.6,No
2015/04/28,01:10,0.546,0.335,0.580,0.539,0.561,0.255,0.229,northwest,1.4,No
2015/04/28,01:20,0.547,0.336,0.578,0.540,0.558,0.255,0.228,-,CALM,No
2015/04/28,01:30,0.544,0.334,0.583,0.540,0.562,0.255,0.228,-,CALM,No
2015/04/28,01:40,0.548,0.336,0.580,0.540,0.558,0.254,0.229,-,CALM,No
2015/04/28,01:50,0.545,0.336,0.582,0.538,0.560,0.254,0.228,-,CALM,No
2015/04/28,02:00,0.547,0.335,0.577,0.541,0.558,0.255,0.229,-,CALM,No
2015/04/28,02:10,0.545,0.336,0.580,0.538,0.562,0.254,0.229,-,CALM,No
2015/04/28,02:20,0.547,0.334,0.581,0.543,0.560,0.255,0.229,-,CALM,No
2015/04/28,02:30,0.546,0.335,0.581,0.539,0.561,0.254,0.230,west-northwest,0.6,No
2015/04/28,02:40,0.545,0.337,0.580,0.542,0.563,0.253,0.228,west-northwest,1.1,No
2015/04/28,02:50,0.547,0.334,0.580,0.539,0.560,0.255,0.229,northwest,1.1,No
2015/04/28,03:00,0.545,0.338,0.580,0.540,0.561,0.254,0.229,northwest,1.1,No
2015/04/28,03:10,0.547,0.335,0.580,0.540,0.560,0.254,0.228,west-northwest,1.1,No
2015/04/28,03:20,0.544,0.334,0.581,0.538,0.562,0.255,0.228,-,CALM,No
2015/04/28,03:30,0.546,0.336,0.579,0.542,0.559,0.253,0.229,west,0.7,No
2015/04/28,03:40,0.546,0.334,0.581,0.536,0.563,0.254,0.229,west,1.2,No
2015/04/28,03:50,0.547,0.335,0.580,0.542,0.557,0.255,0.228,northwest,1.0,No
2015/04/28,04:00,0.547,0.336,0.580,0.539,0.563,0.254,0.229,north-northwest,0.7,No
2015/04/28,04:10,0.544,0.334,0.580,0.540,0.557,0.254,0.228,west-northwest,0.6,No
2015/04/28,04:20,0.548,0.336,0.578,0.540,0.564,0.255,0.229,-,CALM,No
2015/04/28,04:30,0.545,0.334,0.581,0.539,0.558,0.254,0.227,-,CALM,No
2015/04/28,04:40,0.546,0.335,0.577,0.541,0.563,0.254,0.228,-,CALM,No
2015/04/28,04:50,0.545,0.336,0.581,0.539,0.559,0.255,0.229,-,CALM,No
2015/04/28,05:00,0.545,0.335,0.579,0.540,0.560,0.254,0.229,west-northwest,0.6,No
2015/04/28,05:10,0.548,0.336,0.579,0.539,0.561,0.254,0.229,northwest,0.6,No
2015/04/28,05:20,0.544,0.337,0.581,0.538,0.560,0.256,0.229,west-northwest,1.1,No
2015/04/28,05:30,0.548,0.335,0.579,0.541,0.561,0.253,0.229,northwest,1.1,No
2015/04/28,05:40,0.543,0.336,0.583,0.539,0.559,0.253,0.229,northwest,1.2,No
2015/04/28,05:50,0.546,0.334,0.579,0.541,0.561,0.255,0.229,north,0.5,No
2015/04/28,06:00,0.546,0.335,0.581,0.539,0.559,0.254,0.229,north,0.6,No
2015/04/28,06:10,0.546,0.335,0.579,0.540,0.564,0.256,0.229,-,CALM,No
2015/04/28,06:20,0.546,0.333,0.580,0.538,0.558,0.255,0.228,-,CALM,No
2015/04/28,06:30,0.544,0.335,0.581,0.538,0.562,0.254,0.230,-,CALM,No
2015/04/28,06:40,0.548,0.336,0.577,0.541,0.560,0.256,0.229,west-northwest,0.5,No
2015/04/28,06:50,0.546,0.337,0.581,0.539,0.561,0.254,0.228,-,CALM,No
2015/04/28,07:00,0.548,0.334,0.579,0.539,0.562,0.256,0.229,-,CALM,No
2015/04/28,07:10,0.543,0.337,0.576,0.539,0.559,0.256,0.227,-,CALM,No
2015/04/28,07:20,0.549,0.332,0.581,0.534,0.562,0.255,0.230,-,CALM,No
2015/04/28,07:30,0.543,0.335,0.575,0.540,0.558,0.255,0.231,south-southwest,0.6,No
2015/04/28,07:40,0.550,0.333,0.580,0.537,0.563,0.255,0.227,-,CALM,No
2015/04/28,07:50,0.541,0.332,0.580,0.531,0.557,0.255,0.230,-,CALM,No
2015/04/28,08:00,0.548,0.336,0.579,0.536,0.563,0.254,0.229,-,CALM,No
2015/04/28,08:10,0.544,0.333,0.582,0.539,0.560,0.256,0.227,-,CALM,No
2015/04/28,08:20,0.547,0.332,0.577,0.536,0.556,0.254,0.230,south,0.5,No
2015/04/28,08:30,0.546,0.333,0.585,0.532,0.562,0.253,0.229,south,0.9,No
2015/04/28,08:40,0.539,0.335,0.579,0.535,0.558,0.255,0.228,south-southwest,1.4,No
2015/04/28,08:50,0.544,0.334,0.583,0.541,0.554,0.254,0.227,south,1.6,No
2015/04/28,09:00,0.545,0.332,0.583,0.540,0.560,0.253,0.230,south,2.2,No
2015/04/28,09:10,0.540,0.337,0.578,0.537,0.563,0.255,0.229,south,2.4,No
2015/04/28,09:20,0.542,0.336,0.584,0.535,0.557,0.255,0.228,south,2.3,No
2015/04/28,09:30,0.549,0.334,0.580,0.534,0.557,0.253,0.227,south,3.1,No
2015/04/28,09:40,0.544,0.333,0.578,0.533,0.556,0.253,0.228,south,3.9,No
2015/04/28,09:50,0.541,0.330,0.584,0.534,0.565,0.254,0.229,south,3.6,No
2015/04/28,10:00,0.540,0.332,0.579,0.535,0.560,0.255,0.229,south,3.8,No
2015/04/28,10:10,0.538,0.332,0.575,0.540,0.557,0.255,0.228,south,3.7,No
2015/04/28,10:20,0.539,0.335,0.573,0.543,0.554,0.253,0.227,south,3.5,No
2015/04/28,10:30,0.540,0.336,0.576,0.542,0.553,0.253,0.228,south,3.4,No
2015/04/28,10:40,0.540,0.335,0.584,0.539,0.550,0.254,0.227,south,3.0,No
2015/04/28,10:50,0.541,0.336,0.582,0.539,0.549,0.255,0.227,south,3.6,No
2015/04/28,11:00,0.539,0.335,0.581,0.539,0.558,0.255,0.227,south,3.6,No
2015/04/28,11:10,0.540,0.334,0.579,0.538,0.555,0.254,0.227,south-southeast,3.1,No
2015/04/28,11:20,0.540,0.334,0.578,0.539,0.558,0.255,0.228,south-southeast,3.5,No
2015/04/28,11:30,0.543,0.333,0.580,0.539,0.559,0.255,0.226,southeast,3.9,No
2015/04/28,11:40,0.542,0.334,0.579,0.538,0.555,0.255,0.227,south-southeast,2.8,No
2015/04/28,11:50,0.542,0.334,0.578,0.537,0.559,0.255,0.231,south-southeast,2.3,No
2015/04/28,12:00,0.543,0.333,0.579,0.538,0.559,0.255,0.231,south-southeast,2.8,No
2015/04/28,12:10,0.543,0.334,0.578,0.538,0.560,0.257,0.227,south,1.9,No
2015/04/28,12:20,0.543,0.335,0.579,0.541,0.560,0.256,0.229,south-southeast,0.8,No
2015/04/28,12:30,0.542,0.334,0.581,0.540,0.560,0.256,0.228,south-southeast,1.0,No
2015/04/28,12:40,0.542,0.333,0.582,0.540,0.559,0.256,0.228,south-southeast,1.4,No
2015/04/28,12:50,0.545,0.333,0.581,0.541,0.560,0.256,0.230,south,1.6,No
2015/04/28,13:00,0.552,0.335,0.583,0.539,0.560,0.255,0.230,south-southeast,1.4,No
2015/04/28,13:10,0.550,0.334,0.583,0.538,0.559,0.255,0.230,south-southeast,2.6,No
2015/04/28,13:20,0.548,0.334,0.581,0.538,0.559,0.255,0.229,south,2.5,No
2015/04/28,13:30,0.546,0.334,0.581,0.539,0.560,0.255,0.229,south,3.5,No
2015/04/28,13:40,0.542,0.334,0.583,0.539,-,0.255,0.228,south,3.5,No
2015/04/28,13:50,0.547,0.333,0.581,0.540,-,0.256,0.228,south,3.9,No
2015/04/28,14:00,0.552,0.334,0.580,0.539,-,0.256,0.226,south,3.3,No
2015/04/28,14:10,0.548,0.334,0.581,0.539,-,0.256,0.229,south,3.8,No
2015/04/28,14:20,0.549,0.334,0.583,0.542,-,0.257,0.229,south,3.8,No
2015/04/28,14:30,0.545,0.333,0.582,0.542,-,0.258,0.227,south,4.0,No
2015/04/28,14:40,0.544,0.335,0.584,0.541,-,0.257,0.229,south,2.3,No
2015/04/28,14:50,0.543,0.333,0.583,0.540,-,0.257,0.230,south,3.0,No
2015/04/28,15:00,0.543,0.334,0.581,0.539,-,0.258,0.230,south,4.0,No
2015/04/28,15:10,0.551,0.336,0.581,0.542,-,0.257,0.230,south,3.9,No
2015/04/28,15:20,0.551,0.340,0.579,0.549,-,0.255,0.228,south,4.6,No
2015/04/28,15:30,0.548,0.339,0.579,0.545,0.478,0.256,0.230,south,4.2,No
2015/04/28,15:40,0.544,0.336,0.578,0.541,0.477,0.255,0.230,south,5.0,No
2015/04/28,15:50,0.549,0.335,0.577,0.542,0.478,0.255,0.230,south-southwest,4.6,No
2015/04/28,16:00,0.553,0.339,0.584,0.549,0.479,0.256,0.231,south-southwest,4.9,No
2015/04/28,16:10,0.546,0.339,0.589,0.541,0.477,0.257,0.230,south,5.1,No
2015/04/28,16:20,0.545,0.336,0.583,0.542,0.477,0.257,0.232,south-southwest,5.8,No
2015/04/28,16:30,0.551,0.339,0.579,0.548,0.477,0.256,0.229,south-southwest,5.3,No
2015/04/28,16:40,0.548,0.338,0.584,0.542,0.475,0.255,0.231,south-southwest,5.1,No
2015/04/28,16:50,0.544,0.334,0.588,0.543,0.476,0.256,0.229,south-southwest,5.0,No
2015/04/28,17:00,0.550,0.339,0.581,0.545,0.475,0.256,0.229,south-southwest,4.7,No
2015/04/28,17:10,0.547,0.338,0.585,0.539,0.473,0.256,0.231,south,4.8,No
2015/04/28,17:20,0.545,0.337,0.589,0.546,0.481,0.255,0.230,south,5.6,No
2015/04/28,17:30,0.554,0.339,0.581,0.545,0.483,0.256,0.230,south,5.4,No
2015/04/28,17:40,0.547,0.335,0.583,0.541,0.477,0.254,0.230,south,6.6,No
2015/04/28,17:50,0.550,0.338,0.588,0.546,0.484,0.257,0.231,south,6.1,No
2015/04/28,18:00,0.550,0.336,0.582,0.541,0.484,0.255,0.229,south,6.4,No
2015/04/28,18:10,0.546,0.337,0.586,0.544,0.479,0.256,0.230,south,5.9,No
2015/04/28,18:20,0.551,0.336,0.583,0.542,0.485,0.256,0.230,south,5.6,No
2015/04/28,18:30,0.545,0.336,0.584,0.545,0.479,0.256,0.230,south-southwest,4.9,No
2015/04/28,18:40,0.550,0.337,0.587,0.544,0.485,0.256,0.230,south-southwest,3.6,No
2015/04/28,18:50,0.545,0.337,0.582,0.543,0.479,0.256,0.229,south-southwest,3.1,No
2015/04/28,19:00,0.549,0.337,0.585,0.545,0.482,0.255,0.229,south-southwest,3.9,No
2015/04/28,19:10,0.549,0.337,0.582,0.543,0.479,0.257,0.230,south-southwest,4.1,No
2015/04/28,19:20,0.546,0.336,0.587,0.545,0.482,0.255,0.231,south,4.3,No
2015/04/28,19:30,0.551,0.338,0.581,0.544,0.479,0.257,0.232,south-southwest,5.1,No
2015/04/28,19:40,0.548,0.336,0.587,0.545,0.481,0.255,0.231,south-southwest,6.2,No
2015/04/28,19:50,0.548,0.338,0.583,0.541,0.481,0.257,0.230,south-southwest,5.8,No
2015/04/28,20:00,0.547,0.337,0.587,0.544,0.480,0.256,0.231,south-southwest,6.1,No
2015/04/28,20:10,0.548,0.338,0.583,0.543,0.480,0.256,0.231,south-southwest,5.5,No
2015/04/28,20:20,0.545,0.337,0.587,0.546,0.479,0.256,0.231,south-southwest,4.4,No
2015/04/28,20:30,0.549,0.338,0.583,0.542,0.481,0.256,0.230,south-southwest,4.0,No
2015/04/28,20:40,0.546,0.335,0.586,0.546,0.479,0.256,0.231,south-southwest,3.0,No
2015/04/28,20:50,0.550,0.338,0.586,0.544,0.481,0.255,0.230,south-southwest,2.2,No
2015/04/28,21:00,0.548,0.335,0.586,0.545,0.480,0.257,0.230,south-southwest,2.8,No
2015/04/28,21:10,0.551,0.338,0.584,0.544,0.480,0.256,0.230,south-southwest,2.2,No
2015/04/28,21:20,0.550,0.338,0.587,0.544,0.480,0.256,0.230,south-southwest,1.4,No
2015/04/28,21:30,0.551,0.336,0.584,0.547,0.481,0.257,0.231,-,CALM,No
2015/04/28,21:40,0.548,0.338,0.589,0.544,0.482,0.257,0.231,-,CALM,No
2015/04/28,21:50,0.550,0.336,0.583,0.547,0.480,0.258,0.231,north-northeast,0.6,No
2015/04/28,22:00,0.550,0.338,0.590,0.542,0.482,0.256,0.231,-,CALM,No
2015/04/28,22:10,0.547,0.335,0.583,0.547,0.479,0.257,0.230,north,1.0,No
2015/04/28,22:20,0.551,0.337,0.588,0.543,0.483,0.256,0.231,north-northwest,0.9,No
2015/04/28,22:30,0.545,0.338,0.584,0.545,0.478,0.257,0.231,north,1.3,No
2015/04/28,22:40,0.551,0.335,0.586,0.544,0.483,0.257,0.231,north,1.3,No
2015/04/28,22:50,0.546,0.339,0.585,0.544,0.477,0.257,0.231,north,0.7,No
2015/04/28,23:00,0.552,0.337,0.586,0.546,0.483,0.257,0.231,-,CALM,No
2015/04/28,23:10,0.548,0.338,0.587,0.542,0.479,0.257,0.230,-,CALM,No
2015/04/28,23:20,0.550,0.336,0.585,0.545,0.481,0.257,0.231,-,CALM,No
2015/04/28,23:30,0.548,0.337,0.587,0.545,0.480,0.257,0.230,-,CALM,No
2015/04/28,23:40,0.551,0.338,0.585,0.545,0.480,0.256,0.232,south,0.9,No
2015/04/28,23:50,0.550,0.338,0.588,0.544,0.479,0.257,0.232,south,1.1,No
